Weather History for Long Beach, CA

Change the Weather History Date:

Tuesday, April 15, 2014

  Actual Average Record
Temperature  
Mean Temperature 66 °F 62 °F  
Max Temperature 77 °F 72 °F 99 °F (1966)
Min Temperature 54 °F 53 °F 45 °F (1970)
Degree Days  
Heating Degree Days 0 4  
Month to date heating degree days 39 64  
Since 1 July heating degree days 695 1134  
Cooling Degree Days 1 1  
Month to date cooling degree days 31 15  
Year to date cooling degree days 69 33  
Growing Degree Days 16 (Base 50)    
Moisture  
Dew Point 51 °F    
Average Humidity 58    
Maximum Humidity 86    
Minimum Humidity 29    
Precipitation  
Precipitation 0.00 in 0.02 in 0.39 in (1978)
Month to date precipitation 0.20 0.38  
Year to date precipitation 3.02 7.94  
Since 1 July precipitation 4.33 11.76  
Sea Level Pressure  
Sea Level Pressure 29.93 in    
Wind  
Wind Speed 4 mph (South)    
Max Wind Speed 13 mph    
Max Gust Speed 16 mph    
Visibility 6 miles    
Events Fog    
T = Trace of Precipitation, MM = Missing Value Source: NWS Daily Summary

Daily Weather History Graph

Daily Weather History Graph

Search for Another Location

Airport:

Trip Planner

Search our weather history database for the weather conditions in past years. The results will help you decide how hot, cold, wet, or windy it might be!

Date:

Astronomy

Apr. 15, 2014 Rise Set
Actual Time 6:21 AM PDT 7:23 PM PDT
Civil Twilight 5:56 AM PDT 7:49 PM PDT
Nautical Twilight 5:25 AM PDT 8:20 PM PDT
Astronomical Twilight 4:54 AM PDT 8:51 PM PDT
Moon 8:07 PM PDT (4/15) 6:33 AM PDT (4/15)
Length of Visible Light 13h 53m
Length of Day
13h 02m
Full, 100% of the Moon is Illuminated
Apr 15
Full
Apr 22
Last Quarter
Apr 28
New
May 6
First Quarter
May 14
Full

Hourly Weather History & Observations

Time (PDT) Temp. Dew Point Humidity Pressure Visibility Wind Dir Wind Speed Gust Speed Precip Events Conditions
12:53 AM 59.0 °F 50.0 °F 72% 30.01 in 10.0 mi East 5.8 mph - N/A   Clear
1:53 AM 57.9 °F 53.1 °F 84% 29.99 in 7.0 mi SSE 4.6 mph - N/A   Clear
2:12 AM 57.2 °F 53.6 °F 88% 29.99 in 7.0 mi SSE 4.6 mph - N/A   Scattered Clouds
2:24 AM 57.2 °F 53.6 °F 88% 29.99 in 6.0 mi SSE 5.8 mph - N/A   Haze
2:49 AM 57.2 °F 53.6 °F 88% 29.99 in 2.5 mi SSE 3.5 mph - N/A   Overcast
2:53 AM 55.9 °F 53.1 °F 90% 29.99 in 1.2 mi Calm Calm - N/A   Overcast
3:08 AM 55.4 °F 51.8 °F 88% 29.99 in 0.8 mi SSE 4.6 mph - N/A   Mist
3:53 AM 55.0 °F 52.0 °F 89% 29.99 in 0.5 mi Calm Calm - N/A Fog Fog
4:11 AM 55.4 °F 51.8 °F 88% 29.98 in 1.2 mi ENE 3.5 mph - N/A   Overcast
4:28 AM 55.4 °F 51.8 °F 88% 29.97 in 2.0 mi ENE 4.6 mph - N/A   Overcast
4:39 AM 55.4 °F 53.6 °F 94% 29.97 in 3.0 mi ENE 3.5 mph - N/A   Overcast
4:53 AM 55.0 °F 53.1 °F 93% 29.97 in 5.0 mi NNW 3.5 mph - N/A   Overcast
5:39 AM 55.4 °F 53.6 °F 94% 29.96 in 5.0 mi North 3.5 mph - N/A   Overcast
5:53 AM 55.9 °F 53.1 °F 90% 29.96 in 5.0 mi Calm Calm - N/A   Overcast
6:53 AM 57.0 °F 52.0 °F 83% 29.96 in 5.0 mi Calm Calm - N/A   Haze
7:53 AM 57.9 °F 52.0 °F 81% 29.97 in 4.0 mi North 3.5 mph - N/A   Haze
8:53 AM 61.0 °F 53.1 °F 75% 29.97 in 4.0 mi Calm Calm - N/A   Haze
9:53 AM 64.0 °F 52.0 °F 65% 29.97 in 5.0 mi Variable 3.5 mph - N/A   Haze
10:53 AM 64.0 °F 51.1 °F 63% 29.98 in 5.0 mi South 9.2 mph - N/A   Haze
11:53 AM 66.9 °F 51.1 °F 57% 29.95 in 8.0 mi Variable 4.6 mph - N/A   Clear
12:53 PM 69.1 °F 52.0 °F 54% 29.92 in 9.0 mi South 6.9 mph - N/A   Clear
1:53 PM 71.1 °F 52.0 °F 51% 29.91 in 9.0 mi SSW 8.1 mph - N/A   Clear
2:53 PM 75.9 °F 45.0 °F 33% 29.88 in 10.0 mi Variable 4.6 mph - N/A   Clear
3:53 PM 75.0 °F 45.0 °F 34% 29.85 in 10.0 mi West 5.8 mph - N/A   Clear
4:53 PM 75.9 °F 41.0 °F 29% 29.84 in 10.0 mi WNW 8.1 mph - N/A   Clear
5:53 PM 71.1 °F 44.1 °F 38% 29.83 in 10.0 mi West 8.1 mph - N/A   Clear
6:53 PM 64.9 °F 46.9 °F 52% 29.83 in 10.0 mi WNW 10.4 mph - N/A   Clear
7:53 PM 60.1 °F 48.0 °F 64% 29.85 in 10.0 mi NW 8.1 mph - N/A   Clear
8:53 PM 57.9 °F 51.1 °F 78% 29.87 in 8.0 mi WNW 4.6 mph - N/A   Clear
9:53 PM 57.9 °F 51.1 °F 78% 29.88 in 8.0 mi Calm Calm - N/A   Clear
10:53 PM 57.9 °F 51.1 °F 78% 29.88 in 8.0 mi East 3.5 mph - N/A   Clear
11:53 PM 57.9 °F 51.1 °F 78% 29.88 in 7.0 mi South 3.5 mph - N/A   Clear